Savannah Hunter, GA

12:13 PM EDT on May 22, 2017 (GMT -0400)
Hunter Army Air Field

Weather History for KSVN - October, 2013

Change the Weather History Date:

Monday, October 21, 2013

  Actual Average Record
Temperature  
Mean Temperature 67 °F -  
Max Temperature 72 °F 74 °F 86 °F (2005)
Min Temperature 63 °F 54 °F 40 °F (2011)
Cooling Degree Days 2    
Growing Degree Days 17 (Base 50)    
Moisture  
Dew Point 60 °F    
Average Humidity 75    
Maximum Humidity 90    
Minimum Humidity 60    
Precipitation  
Precipitation 0.00 in - - ()
Sea Level Pressure  
Sea Level Pressure 30.04 in    
Wind  
Wind Speed 6 mph (NE)    
Max Wind Speed 9 mph    
Max Gust Speed -    
Visibility 10 miles    
Events      
Averages and records for this station are not official NWS values.
T = Trace of Precipitation, MM = Missing Value Source: NWS Daily Summary

Daily Weather History Graph

Daily Weather History Graph

Search for Another Location

Airport or City:

Trip Planner

Search our weather history database for the weather conditions in past years. The results will help you decide how hot, cold, wet, or windy it might be!

Date:

Astronomy

Oct. 21, 2013 Rise Set
Actual Time 7:32 AM EDT 6:45 PM EDT
Civil Twilight 7:07 AM EDT 7:09 PM EDT
Nautical Twilight 6:39 AM EDT 7:38 PM EDT
Astronomical Twilight 6:10 AM EDT 8:06 PM EDT
Moon 8:45 PM EDT (10/21) 9:58 AM EDT (10/21)
Length of Visible Light 12h 02m
Length of Day
11h 12m
Waning Gibbous, 93% of the Moon is Illuminated
Oct 21
Waning Gibbous
Oct 26
Last Quarter
Nov 3
New
Nov 10
First Quarter
Nov 17
Full

Hourly Weather History & Observations

Time (EDT) Temp. Dew Point Humidity Pressure Visibility Wind Dir Wind Speed Gust Speed Precip Events Conditions
12:58 AM 65.8 °F 63.0 °F 90% 30.03 in 10.0 mi NNE 5.8 mph - N/A   Scattered Clouds
1:58 AM 64.9 °F 62.1 °F 90% 30.03 in 10.0 mi NNE 4.6 mph - N/A   Scattered Clouds
2:58 AM 64.4 °F 61.5 °F 90% 30.02 in 10.0 mi NNE 6.9 mph - N/A   Mostly Cloudy
3:58 AM 63.9 °F 60.6 °F 89% 30.03 in 10.0 mi NNE 3.5 mph - N/A   Overcast
4:58 AM 63.9 °F 59.7 °F 86% 30.03 in 10.0 mi NNE 5.8 mph - N/A   Mostly Cloudy
5:38 AM 64.4 °F 59.0 °F 83% 30.04 in 10.0 mi NNE 5.8 mph - N/A   Overcast
5:58 AM 64.2 °F 59.4 °F 84% 30.04 in 10.0 mi NE 5.8 mph - N/A   Overcast
6:58 AM 64.0 °F 59.5 °F 85% 30.05 in 10.0 mi NE 4.6 mph - N/A   Overcast
7:58 AM 64.0 °F 59.0 °F 84% 30.06 in 10.0 mi NNE 5.8 mph - N/A   Mostly Cloudy
8:03 AM 64.4 °F 59.0 °F 83% 30.05 in 10.0 mi NE 5.8 mph - N/A   Mostly Cloudy
8:58 AM 66.2 °F 59.0 °F 78% 30.07 in 10.0 mi NE 5.8 mph - N/A   Overcast
9:04 AM - - N/A% - - NE 3.5 mph - N/A   Unknown
9:24 AM 68.0 °F 59.0 °F 73% 30.07 in 10.0 mi NNE 5.8 mph - N/A   Mostly Cloudy
9:58 AM 67.8 °F 58.5 °F 72% 30.09 in 10.0 mi NNE 6.9 mph - N/A   Overcast
10:58 AM 68.9 °F 58.3 °F 69% 30.08 in 10.0 mi NE 8.1 mph - N/A   Partly Cloudy
11:33 AM 69.8 °F 57.2 °F 64% 30.08 in 10.0 mi North 8.1 mph - N/A   Overcast
11:58 AM 69.4 °F 56.8 °F 64% 30.07 in 10.0 mi East 9.2 mph - N/A   Mostly Cloudy
12:58 PM 71.2 °F 56.8 °F 60% 30.07 in 10.0 mi NNE 6.9 mph - N/A   Overcast
1:30 PM 71.6 °F 57.2 °F 60% 30.04 in 10.0 mi ENE 5.8 mph - N/A   Light Drizzle
1:39 PM 71.6 °F 59.0 °F 64% 30.05 in 10.0 mi ENE 5.8 mph - N/A   Mostly Cloudy
1:46 PM 71.6 °F 59.0 °F 64% 30.05 in 10.0 mi NE 5.8 mph - N/A   Light Drizzle
1:58 PM 71.1 °F 59.5 °F 67% 30.06 in 10.0 mi NE 6.9 mph - 0.00 in   Light Drizzle
2:05 PM 69.8 °F 59.0 °F 68% 30.04 in 10.0 mi ENE 6.9 mph - N/A   Overcast
2:20 PM 71.6 °F 59.0 °F 64% 30.04 in 10.0 mi NNE 4.6 mph - N/A   Overcast
2:58 PM 71.6 °F 60.8 °F 69% 30.03 in 10.0 mi NNE 8.1 mph - 0.00 in   Overcast
3:23 PM 71.6 °F 60.8 °F 69% 30.02 in 10.0 mi North 9.2 mph - N/A   Overcast
3:58 PM 71.6 °F 60.8 °F 69% 30.02 in 10.0 mi NE 5.8 mph - N/A   Mostly Cloudy
4:58 PM 71.4 °F 61.2 °F 70% 30.02 in 10.0 mi NNE 8.1 mph - N/A   Mostly Cloudy
5:58 PM 70.7 °F 60.3 °F 69% 30.01 in 10.0 mi NE 5.8 mph - N/A   Scattered Clouds
6:58 PM 69.1 °F 59.7 °F 72% 30.03 in 10.0 mi North 4.6 mph - N/A   Overcast
7:58 PM 68.4 °F 59.9 °F 74% 30.02 in 10.0 mi ENE 5.8 mph - N/A   Overcast
8:58 PM 67.5 °F 61.2 °F 80% 29.99 in 10.0 mi NE 4.6 mph - N/A   Mostly Cloudy
9:58 PM 66.9 °F 61.0 °F 81% 30.02 in 10.0 mi NNE 3.5 mph - N/A   Mostly Cloudy
10:58 PM 66.0 °F 61.2 °F 84% 30.02 in 10.0 mi NE 3.5 mph - N/A   Mostly Cloudy
11:58 PM 65.8 °F 61.2 °F 85% 30.01 in 10.0 mi NNE 2.3 mph - N/A   Mostly Cloudy